Regional Weather Roundup
Issued by NWS Midland/Odessa, TX

Skip options and go directly to product.
Home | Oldest Version | Previous Version | Current Version | All | Graphics & Text | Save Text | Print | Product List | Glossary On

Skip product version selection by date and time.   
079
ASUS44 KMAF 270310
RWRMAF
MIDLAND AREA WEATHER ROUNDUP
NATIONAL WEATHER SERVICE MIDLAND TX
1000 PM CDT THU MAR 26 2015

...IN SOUTHWEST TEXAS AND SOUTHEAST NEW MEXICO...

CITY           SKY/WX    TMP DP  RH WIND       PRES   REMARKS
ALPINE         CLEAR     45  33  61 SW3       30.33R
ANDREWS        FAIR      51  24  34 SW3       30.23R
ARTESIA        PTCLDY    50  23  34 S8        30.23R
BIG SPRING     CLEAR     54  30  40 E5        30.23S
CARLSBAD       CLEAR     49  30  48 S8        30.21R
DRYDEN           N/A     54  38  54 NW6       30.22R
FORT STOCKTON  CLEAR     50  32  50 CALM      30.25R
GUAD PASS      CLEAR     50  23  34 S7        30.28R
HOBBS          CLEAR     46  18  31 SW8       30.24R
MARFA          CLEAR     46  32  57 NE3       30.29R
MIDLAND AIRPK  CLEAR     56  27  33 W5        30.23R
MIDLAND INTL   FAIR      52  34  50 SW6       30.22R
ODESSA         CLEAR     56  26  31 CALM      30.23R
PECOS          CLEAR     53  31  42 S6        30.24R
PRESIDIO       FAIR      63  37  38 CALM      30.20R
SEMINOLE       CLEAR     50  21  32 CALM      30.23S
SNYDER         CLEAR     55  23  29 SE6       30.20S
WINK           CLEAR     52  26  36 SW8       30.22R
$$
...OTHER STATIONS IN TEXAS...

CITY           SKY/WX    TMP DP  RH WIND       PRES   REMARKS
ABILENE        CLEAR     50  30  46 E6        30.20R
AMARILLO       MOCLDY    54  19  25 NW8       30.17R
AUSTIN         CLEAR     50  38  63 N8        30.15R
BROWNSVILLE    MOCLDY    64  51  62 N13G20    30.09R
CORPUS CHRISTI CLOUDY    62  55  77 NW3       30.13R
DALLAS FTW     CLEAR     54  31  41 N8        30.15R
DEL RIO        CLEAR     59  40  49 N6        30.17R
EL PASO        CLEAR     60  26  27 S5        30.20S
HOUSTON INT    MOCLDY    59  49  69 N5        30.08R
LUBBOCK        PTCLDY    52  19  27 W5        30.19R
SAN ANGELO     CLEAR     50  31  48 E5        30.20R
SAN ANTONIO    CLEAR     59  37  44 N6        30.16R
WACO           CLEAR     51  35  54 NW7       30.16R
WICHITA FALLS  NOT AVBL
$$
...OTHER LOCATIONS IN NEW MEXICO...

CITY           SKY/WX    TMP DP  RH WIND       PRES   REMARKS
ALAMAGORDO     PTCLDY    54  19  26 NE7       30.22R
ALBUQUERQUE    PTCLDY    54  19  25 SE7       30.24R
CANNON AFB     CLEAR     48  19  32 SW7       30.20R
CLOVIS         CLEAR     45  21  39 SW7       30.19S
HOLLOMAN AFB   PTCLDY    58  22  24 CALM      30.20R
ROSWELL        PTCLDY    48  23  37 S10       30.21R
RUIDOSO        PTCLDY    50  12  22 CALM      30.31R
SANTA FE       CLEAR     50   9  19 W8        30.23R
TRUTH OR CONSE CLEAR     59  17  19 SW7       30.21R
TUCUMCARI      CLEAR     46  21  37 SW8       30.16R
$$

USA.gov is the U.S. government's official web portal to all federal, state and local government web resources and services.